Theta_e
329 329 327 323 324 326 325 324 325 325 324 325 323 320 319 316 317 326 333 335 342 340 339 344 340 337 338 335 344 352 354 354 352 352 353 353 353 356 357 356 355 355 355 358 358 358 357 357 359 359 359 359 358 358 359 359 360 360 359 359 360 361 361 361 361 361 360 359 359 358 356 356 357 357 357 357 356 357 357 355 355 353 351 351 352 352
327 326 325 325 325 324 324 323 324 324 325 325 322 319 318 317 318 328 335 336 344 340 335 346 341 336 339 337 343 352 352 352 351 353 355 355 355 356 359 357 356 356 355 359 361 360 359 358 359 360 359 359 358 358 358 358 359 359 359 359 360 362 363 361 360 360 359 358 360 360 358 356 356 357 357 357 355 356 356 354 354 353 352 351 351 351
326 326 326 326 323 323 323 324 324 324 325 325 323 318 315 318 320 329 341 343 344 337 332 343 338 332 339 340 345 350 348 348 351 354 353 355 357 358 359 358 356 356 356 360 361 361 360 359 360 360 359 359 358 357 357 358 359 360 359 359 360 361 362 361 359 358 358 359 360 360 359 357 355 355 355 354 354 354 355 354 353 354 352 352 352 351
319 323 326 324 322 323 324 324 324 323 324 324 322 316 313 319 317 317 333 345 346 340 336 342 335 329 336 341 347 349 346 351 355 354 353 352 358 360 359 357 356 356 358 359 360 361 362 361 362 360 359 359 359 358 357 358 359 359 360 359 361 361 362 362 361 359 359 361 362 360 360 359 357 356 355 354 353 354 355 355 354 354 353 352 352 351
321 323 324 323 322 324 323 323 325 322 321 324 324 319 315 320 318 316 325 335 342 344 344 339 324 321 330 335 344 351 350 355 357 355 354 353 356 359 358 357 357 357 358 360 358 360 363 363 362 361 360 360 360 359 358 357 358 359 360 360 361 362 362 362 362 362 362 362 362 361 361 360 360 359 357 356 355 355 356 356 355 354 353 353 351 351
324 324 322 323 323 323 323 323 324 322 318 319 323 324 321 322 321 321 322 322 322 324 336 332 312 312 325 329 338 347 349 356 358 357 357 356 358 358 357 356 357 359 358 359 357 357 361 363 363 363 361 361 361 360 359 358 358 359 359 361 362 364 363 362 363 364 364 363 363 362 361 360 360 358 358 357 355 355 355 354 354 354 353 353 351 351
323 323 323 323 323 324 324 322 324 324 317 313 320 324 324 323 321 320 321 316 310 313 330 332 314 310 317 325 339 345 345 351 351 351 357 361 361 355 355 355 357 361 359 358 357 355 358 360 362 363 362 362 361 361 360 360 359 360 360 361 363 364 364 362 362 364 364 362 362 361 360 360 358 357 358 358 355 354 354 352 352 353 353 353 351 351
324 324 322 323 324 323 321 320 323 325 317 313 321 324 323 323 322 320 319 315 314 316 325 330 321 312 310 322 343 345 340 340 339 341 348 358 360 353 353 354 355 358 358 356 356 355 356 358 360 362 362 361 360 361 362 361 362 362 361 363 364 365 365 363 362 364 364 361 360 360 359 358 358 357 357 359 357 354 355 354 352 351 352 352 351 351
325 324 323 325 323 322 321 323 324 324 320 319 323 323 323 323 322 322 319 315 318 316 312 319 322 313 308 322 343 342 335 334 336 337 340 349 355 351 350 350 350 354 354 354 354 355 357 357 358 360 361 361 360 361 363 363 364 363 363 364 365 366 365 365 364 364 364 362 360 357 355 355 357 359 358 357 358 357 357 356 353 352 352 353 352 351
325 324 324 324 323 323 324 325 324 323 323 322 323 323 323 324 323 323 320 315 315 313 308 312 317 311 308 316 328 330 329 332 336 337 340 348 350 347 348 347 348 351 353 354 354 357 359 358 358 359 361 362 361 362 363 364 364 364 364 365 366 366 366 366 366 365 364 363 361 358 357 356 355 357 358 358 358 358 358 356 354 354 353 352 352 351
325 325 325 324 324 324 324 324 323 323 323 322 323 323 321 323 324 322 321 317 312 310 310 312 315 313 310 313 320 327 331 337 339 338 341 346 346 346 347 345 346 349 354 356 356 358 360 360 360 360 362 363 362 363 363 363 363 363 364 365 366 366 366 365 364 364 361 361 362 359 359 358 355 354 354 356 356 356 359 358 354 355 355 353 353 352
325 324 326 325 324 324 325 324 322 323 322 322 323 321 316 315 318 315 315 316 311 309 313 315 318 315 309 313 324 331 339 341 339 340 343 345 346 347 346 346 347 348 353 358 358 360 361 361 362 361 362 363 364 364 364 363 363 363 363 364 366 365 364 362 360 358 356 356 357 355 355 357 355 354 352 352 352 353 358 357 353 353 354 355 353 351
322 325 326 326 326 325 325 323 322 322 322 323 321 316 310 309 311 310 309 311 309 310 315 319 320 316 311 319 330 335 339 341 341 342 342 344 346 347 346 348 349 348 350 355 358 359 361 363 364 364 364 365 365 364 364 364 362 362 363 363 365 364 363 360 356 354 351 352 353 352 355 356 352 352 353 351 352 353 353 353 352 350 351 354 353 351
316 324 328 327 326 326 326 321 317 318 321 321 317 311 308 308 309 309 309 310 309 310 315 322 321 314 312 322 333 336 337 339 343 344 343 346 349 348 345 346 348 350 351 353 355 356 359 363 364 364 365 365 365 365 364 364 363 363 363 362 363 363 362 358 354 353 351 351 352 352 355 355 351 351 354 354 355 355 352 351 352 350 349 352 352 351
311 315 324 327 324 325 326 324 320 321 322 322 322 318 311 309 309 309 309 309 309 309 313 319 318 312 312 323 333 336 336 339 342 343 345 348 350 350 346 345 347 350 352 353 355 356 358 362 364 363 365 365 365 365 364 364 363 362 361 361 361 361 361 359 354 354 354 352 353 354 354 354 354 354 356 356 356 355 353 353 352 352 352 352 351 352
311 313 324 328 325 326 324 323 324 323 319 322 325 319 311 313 313 309 309 310 309 309 312 313 314 316 321 330 336 337 338 342 343 344 348 348 348 347 347 347 348 350 352 352 354 356 359 362 362 363 364 364 365 365 364 365 364 362 360 360 361 360 361 360 355 354 355 354 355 356 354 353 355 356 356 356 356 354 353 353 352 353 355 352 351 353
311 313 327 329 326 330 326 324 325 320 317 320 318 314 316 322 320 310 309 312 310 309 312 312 312 316 323 330 337 338 339 343 343 342 342 342 344 346 347 350 351 352 353 353 353 355 358 361 361 362 362 363 364 364 364 365 364 362 360 360 361 360 360 358 355 354 354 355 356 356 355 354 355 355 354 354 354 353 352 352 352 354 355 353 352 353
316 313 326 331 327 329 328 326 328 324 322 319 314 316 322 324 321 314 310 311 310 309 311 312 310 311 315 324 336 337 335 337 338 339 339 341 346 348 347 350 353 354 354 354 354 354 357 360 359 360 360 361 363 363 364 366 364 361 360 359 361 361 359 357 355 355 354 355 354 354 354 354 353 353 353 353 353 352 352 352 353 354 354 354 354 353
322 313 320 331 328 329 331 328 324 325 327 323 319 323 322 314 313 314 310 309 311 309 310 312 311 312 317 326 336 340 339 339 339 341 343 344 348 349 348 349 352 353 354 353 352 352 354 356 357 359 360 359 362 363 363 365 364 361 360 359 360 360 358 356 355 354 353 353 352 352 353 353 353 352 353 353 353 352 352 352 352 353 353 353 354 353
328 317 315 326 331 328 329 326 319 320 327 327 325 327 325 318 314 314 312 311 310 309 311 311 310 317 329 338 342 346 349 348 345 345 347 348 349 350 350 352 352 353 354 351 349 349 352 354 356 358 359 360 362 362 362 363 363 361 359 359 359 359 358 356 354 354 353 352 352 351 352 352 353 353 353 352 352 351 351 351 351 352 353 354 353 353
331 322 313 322 330 324 322 325 322 322 325 323 320 319 321 321 318 318 315 313 311 310 311 311 311 322 339 348 350 352 353 351 349 349 352 352 353 352 352 354 354 353 352 350 348 348 352 355 355 357 359 360 361 361 361 361 361 361 360 358 358 359 358 356 354 353 353 352 352 351 352 352 353 353 352 351 351 351 351 351 351 353 354 354 353 353
328 325 315 316 320 317 320 328 329 329 328 325 321 319 320 319 316 315 314 315 314 311 312 312 314 327 345 349 352 355 354 353 353 353 355 356 356 355 355 355 355 354 351 349 347 348 353 357 356 357 359 360 361 362 361 361 360 360 360 358 357 359 359 357 355 354 353 352 351 351 352 353 354 353 352 351 350 349 349 350 352 353 354 355 354 352
331 328 318 314 318 322 327 329 328 328 330 330 328 326 327 323 317 312 311 315 314 313 316 312 314 331 350 350 351 353 352 353 353 354 356 354 355 356 356 356 357 357 355 350 349 350 356 359 359 361 362 362 362 362 362 362 361 359 359 358 357 357 358 357 356 355 354 353 352 352 353 354 354 353 352 352 350 348 347 349 352 354 354 354 354 353
333 330 319 315 322 326 327 329 328 329 330 327 328 331 330 326 324 319 318 320 315 313 317 313 316 335 350 349 350 351 350 352 351 352 353 351 352 353 354 356 357 357 357 356 355 356 358 359 360 363 364 364 364 363 362 362 362 361 360 359 359 357 357 357 357 356 356 355 354 353 354 354 354 353 352 351 350 349 349 349 351 354 355 354 354 354
326 327 321 315 317 319 321 324 324 325 327 325 327 333 331 329 330 326 324 323 317 316 317 313 319 338 348 347 349 348 347 349 348 348 349 349 350 349 349 352 353 354 356 356 357 358 360 360 361 361 362 362 363 362 361 361 362 362 361 360 360 359 357 357 356 356 356 357 356 354 354 354 353 352 351 350 350 350 350 350 351 353 354 353 354 355
327 330 325 316 314 315 315 317 318 320 324 325 328 331 333 331 328 324 320 317 316 319 320 315 321 337 349 349 348 347 346 347 347 346 345 346 347 347 347 347 349 351 352 353 354 354 356 358 358 359 359 360 360 360 361 361 360 360 360 359 359 359 358 357 356 356 356 356 356 354 354 354 353 352 350 350 350 350 351 351 351 351 352 353 354 355
334 333 331 325 319 317 318 321 326 326 321 321 324 328 332 332 331 326 318 314 318 319 318 322 330 336 344 349 348 346 345 344 344 343 344 346 345 345 345 344 345 347 348 350 351 350 352 353 353 354 354 356 357 358 358 359 357 358 359 359 358 359 359 357 356 356 356 356 356 354 354 353 353 353 352 351 350 350 352 352 351 351 352 352 353 354
334 326 329 332 325 324 327 328 330 328 323 322 323 326 330 334 335 327 317 320 324 315 315 334 344 336 340 349 347 345 345 343 342 342 343 345 343 343 344 343 343 344 345 346 347 349 351 350 351 352 352 353 354 355 355 356 357 357 358 357 357 358 357 357 357 357 357 357 354 353 354 353 352 353 353 352 351 351 353 352 352 352 351 352 353 353
331 322 327 330 325 328 331 328 328 328 328 330 329 329 332 334 333 327 324 331 330 318 322 343 348 340 343 347 343 343 343 341 341 340 340 340 340 340 341 341 341 342 343 344 344 347 348 349 351 351 350 352 353 352 353 354 356 356 356 355 355 355 355 356 357 357 358 358 352 350 352 353 352 353 353 354 354 354 354 352 351 351 351 351 353 353
325 324 331 329 324 327 328 328 328 328 330 332 333 335 336 334 334 332 332 337 334 329 337 348 346 344 345 343 342 343 340 340 340 339 339 338 338 338 339 339 339 339 341 342 342 343 343 347 351 350 348 350 351 351 352 353 355 355 355 355 354 354 354 354 355 357 358 359 354 349 351 353 354 354 355 355 355 354 353 352 351 351 351 352 352 353
322 325 333 330 321 322 326 328 326 327 330 329 331 338 337 334 334 335 336 339 337 337 344 346 343 345 344 341 342 341 339 341 340 339 340 339 338 339 338 337 337 337 338 339 339 340 340 342 348 351 349 347 347 349 350 351 353 353 354 355 353 353 353 352 354 355 356 358 357 353 353 355 357 357 356 357 356 354 352 352 351 351 352 352 353 353
322 324 329 326 317 316 323 324 322 329 330 324 326 335 335 332 332 335 340 343 340 339 341 340 339 343 344 342 342 340 339 341 340 340 340 338 338 339 337 335 334 333 334 335 336 337 338 339 343 347 349 347 344 345 347 350 352 351 353 354 353 352 352 352 353 354 354 356 356 356 356 357 358 358 357 357 356 355 354 353 353 354 353 354 353 354
324 322 321 319 314 314 320 321 324 327 321 317 324 334 338 338 338 340 346 348 346 344 341 338 340 345 345 343 343 343 341 340 340 338 337 337 338 337 335 333 333 332 333 333 334 335 337 340 341 342 345 346 344 343 344 347 349 350 351 353 352 352 352 353 353 354 355 356 356 357 357 357 357 357 356 355 355 356 356 354 355 355 355 355 355 354
326 321 319 319 314 312 317 323 324 319 315 321 335 343 343 343 341 342 345 346 347 346 343 344 346 346 345 344 344 343 342 341 338 336 335 337 337 337 335 334 333 334 334 333 334 335 336 338 338 338 339 342 345 346 344 342 343 347 350 350 351 352 352 353 354 354 355 356 357 358 357 357 357 356 356 356 356 358 356 353 355 355 355 355 355 355
328 323 321 321 314 311 318 320 315 314 321 334 345 344 342 342 343 344 346 346 345 345 346 347 346 345 345 345 342 343 344 342 338 336 335 335 335 336 335 334 334 334 334 334 334 334 335 334 335 335 336 337 340 344 345 341 339 342 346 348 349 350 351 352 354 354 355 355 356 357 357 357 357 357 357 357 357 357 355 353 354 356 355 355 355 355
329 326 323 321 316 315 315 312 312 320 335 344 343 340 341 343 344 343 342 343 344 343 344 345 343 343 343 342 341 342 342 342 341 338 335 332 331 331 329 331 332 331 332 333 333 333 333 332 332 334 334 335 334 336 341 343 339 338 341 344 346 347 349 350 352 353 354 354 355 357 356 356 357 358 358 357 356 356 355 354 355 356 357 356 355 355
327 328 324 319 317 316 311 310 317 326 331 336 340 341 339 340 341 339 338 341 342 339 340 342 340 340 339 338 340 341 340 343 343 338 332 329 328 328 328 328 329 330 331 331 331 331 331 331 332 332 332 333 333 332 336 342 341 338 338 340 342 344 346 347 349 352 352 352 354 355 354 354 355 356 356 357 358 357 355 355 354 354 357 357 356 355
326 329 326 319 318 318 313 312 318 319 321 329 337 337 334 333 333 334 336 339 340 336 336 339 338 337 336 335 335 336 339 344 342 335 330 328 327 327 329 329 328 329 330 329 329 330 330 330 331 331 331 332 333 332 333 338 341 339 337 337 338 340 343 343 344 347 349 350 352 354 354 355 355 353 352 355 357 357 358 357 354 354 356 355 354 355
323 327 327 321 317 317 315 314 315 318 325 334 336 332 330 330 331 331 332 335 338 335 333 335 335 334 333 333 332 333 336 337 336 332 329 328 328 328 328 330 330 329 329 329 329 329 329 330 330 331 331 330 331 332 332 335 339 339 337 336 336 337 339 340 340 342 344 347 350 352 352 353 354 354 353 353 354 355 356 357 356 356 354 351 352 354
324 325 324 320 316 316 316 314 315 323 332 335 331 330 329 330 332 331 328 331 337 334 331 332 332 332 332 332 331 332 333 332 331 330 328 327 329 329 329 330 330 330 329 329 329 330 330 331 331 331 331 330 330 331 331 334 338 338 337 337 336 336 337 337 338 341 343 345 347 349 350 351 352 352 353 353 353 354 354 356 355 354 352 351 352 353
327 327 325 321 317 317 317 314 316 327 335 333 329 330 330 331 332 330 329 335 336 332 330 332 331 331 331 331 329 330 331 330 329 328 327 328 329 329 330 330 329 330 330 329 330 331 331 331 331 331 331 331 331 332 332 334 336 337 337 337 335 336 337 336 337 340 342 344 345 346 349 351 350 349 350 352 352 352 354 355 355 353 353 353 352 351
326 326 325 323 321 321 321 317 317 327 333 330 327 328 329 331 331 330 333 335 332 329 330 330 329 330 330 330 330 329 329 329 328 328 328 328 329 329 330 330 329 330 330 330 330 331 330 330 331 331 332 332 331 332 333 334 334 335 336 336 335 335 337 337 337 338 340 342 344 345 347 349 349 348 348 349 350 351 352 353 354 354 354 353 352 352
327 323 321 323 325 323 322 320 321 327 331 329 328 331 332 332 332 332 332 331 328 328 329 328 329 330 329 329 329 329 329 329 329 329 328 327 329 329 329 330 330 330 330 329 328 328 329 329 330 330 332 332 331 332 333 334 335 335 335 336 336 335 336 337 337 337 338 339 342 344 345 347 348 347 346 347 348 350 351 351 353 354 354 353 353 353
329 325 322 326 328 323 321 323 327 329 330 328 329 332 331 330 330 330 329 328 327 327 327 328 331 330 329 330 330 329 329 329 329 328 328 327 328 329 329 330 329 329 328 327 326 327 328 329 330 330 331 331 331 332 332 333 335 335 335 336 336 336 336 336 336 336 337 337 339 341 342 346 348 346 345 346 347 348 350 351 352 354 354 353 352 351
330 329 327 329 330 327 327 330 331 329 327 326 327 328 327 327 328 327 327 328 328 328 328 329 329 329 329 330 329 328 329 328 327 327 328 327 327 327 328 329 327 327 327 326 326 327 328 329 330 330 331 332 332 332 333 334 334 335 335 336 336 336 336 335 335 336 336 336 337 338 339 344 347 347 345 345 346 347 348 349 350 351 351 351 351 351
328 328 328 330 331 330 330 330 329 328 327 325 325 325 325 325 327 327 327 328 329 328 328 328 328 328 328 328 328 328 327 326 326 326 326 325 325 326 327 327 326 327 327 327 327 328 329 329 330 331 332 333 333 333 334 334 334 335 335 335 336 336 335 335 335 336 336 336 336 336 337 340 345 348 347 345 345 345 346 346 347 349 348 348 349 351
326 324 327 330 329 328 329 330 329 328 327 326 325 326 326 326 327 328 328 329 329 329 329 328 328 327 327 326 327 327 326 325 324 324 324 324 323 324 326 326 327 327 328 328 329 330 330 331 332 332 332 332 333 333 334 334 335 335 335 335 335 335 334 335 335 335 335 335 335 336 336 337 340 345 347 345 344 344 344 344 345 345 347 348 348 349
326 325 326 328 328 328 329 330 329 327 327 327 326 327 327 327 328 329 328 328 329 329 329 328 327 326 326 326 326 326 326 325 324 324 324 323 324 326 326 327 328 328 328 329 330 331 331 332 332 332 332 332 332 332 332 333 334 334 335 335 334 334 334 334 334 334 334 334 335 335 336 335 336 340 345 346 346 344 343 342 342 342 344 346 347 348
325 326 326 326 327 327 328 329 328 327 328 327 327 327 328 328 328 328 328 327 326 327 327 327 326 326 326 325 326 326 325 324 325 325 324 324 325 327 326 327 328 329 329 330 330 330 330 330 330 331 331 331 331 331 332 332 332 333 334 334 334 334 334 334 334 334 334 334 335 335 336 336 334 335 340 345 347 346 344 344 342 341 341 343 345 346
325 326 326 325 325 326 327 328 328 328 328 327 326 326 327 327 326 326 327 326 325 325 326 325 325 326 326 325 326 325 324 324 325 325 324 325 326 326 326 327 328 329 329 329 329 329 329 330 330 330 330 330 330 331 331 331 331 332 332 333 333 333 333 334 334 333 333 334 334 334 335 335 334 333 335 340 344 345 345 344 342 340 340 340 340 340
326 327 326 324 325 326 327 327 327 327 327 327 326 326 326 326 326 326 326 326 325 325 326 325 325 325 325 325 325 324 323 324 325 325 325 326 325 325 326 328 328 329 329 328 328 328 329 329 329 330 330 330 330 330 331 331 331 331 331 332 333 333 333 333 333 334 334 334 333 334 335 336 335 335 335 337 339 341 342 341 340 340 340 339 337 335
Wind_Speed
3 6 6 6 4 4 5 4 5 6 5 7 6 5 5 5 3 5 4 3 3 5 3 2 7 9 9 7 3 4 5 4 5 6 5 5 6 7 8 8 8 8 6 6 8 10 11 12 13 14 14 15 16 16 16 17 18 18 17 16 16 16 16 15 15 15 15 14 14 14 15 14 13 12 11 10 10 11 10 10 11 10 9 9 10 11
3 8 7 3 4 4 4 3 4 5 5 6 6 6 5 4 3 6 4 2 0 4 0 1 7 9 8 7 3 3 5 5 5 6 6 7 7 7 8 9 8 7 6 6 8 9 11 12 14 14 14 15 16 17 17 18 19 19 19 18 17 16 16 17 17 16 16 16 14 13 14 13 12 11 12 12 12 13 11 10 10 9 8 9 11 12
6 10 6 3 5 2 1 2 5 6 6 7 5 5 4 3 2 4 4 2 2 3 2 3 7 7 6 5 2 2 3 3 2 3 5 6 7 7 7 8 8 8 7 8 9 10 12 13 14 14 14 15 17 17 18 18 19 19 19 19 18 17 17 17 18 18 17 16 15 13 12 11 10 10 11 11 11 12 10 9 8 8 9 9 10 11
6 5 0 5 3 3 3 3 5 6 7 7 5 5 4 3 3 0 3 2 3 3 4 5 7 6 4 3 1 3 3 2 3 4 5 6 6 6 6 6 7 8 8 9 9 9 11 12 14 14 14 15 16 17 17 18 19 19 20 20 19 19 18 17 18 19 17 14 13 12 10 9 9 7 8 8 9 9 9 9 8 9 10 10 10 11
8 1 5 3 1 5 6 4 6 7 7 7 6 7 6 4 4 4 3 2 4 4 3 6 6 3 2 2 2 4 4 4 4 6 6 6 5 5 5 5 6 6 6 7 8 8 10 12 13 14 14 15 15 16 17 18 18 18 19 20 20 19 18 17 17 18 16 13 13 12 10 10 9 7 8 10 10 10 11 11 10 10 10 11 11 11
8 1 2 3 3 4 6 5 4 6 7 6 7 7 6 5 5 5 5 5 5 3 2 4 5 1 2 2 0 3 3 4 5 6 7 6 6 5 5 5 5 5 6 7 7 7 8 11 12 13 14 15 15 15 15 16 16 16 16 18 19 18 17 17 17 17 17 15 14 14 13 12 11 11 12 12 11 12 13 12 10 10 10 10 11 11
2 3 1 4 5 5 7 6 4 5 8 5 2 3 2 4 5 6 6 6 5 2 2 2 5 3 2 1 2 1 1 5 3 2 5 6 6 5 4 3 4 5 6 6 7 7 7 9 10 12 13 14 14 13 13 13 14 15 14 16 17 17 16 16 17 18 18 17 16 17 16 15 14 13 12 12 11 10 10 9 8 10 9 10 11 13
4 4 4 5 6 6 7 6 3 4 8 3 5 3 1 3 6 6 7 6 4 4 2 5 4 5 3 2 4 2 4 9 5 3 2 3 5 4 2 3 3 4 4 4 4 5 6 7 8 9 10 11 12 11 11 12 12 13 13 14 15 16 15 16 16 18 19 18 17 17 16 15 15 14 12 10 10 9 8 8 9 9 9 10 11 13
4 5 5 5 6 7 5 2 2 3 8 1 6 3 3 3 6 6 7 7 3 5 5 4 3 5 4 2 4 3 5 5 3 1 2 2 6 6 4 4 3 2 2 2 2 2 3 4 5 6 7 8 9 9 10 10 10 11 12 13 14 15 14 15 16 17 18 18 17 17 17 16 14 12 10 10 10 10 9 9 9 9 8 9 10 12
2 1 2 4 6 5 3 4 2 6 6 3 4 2 2 3 5 5 6 6 3 6 6 0 2 6 4 1 3 5 3 2 4 4 2 2 7 8 6 5 5 5 3 2 2 2 2 2 2 3 4 6 6 7 7 8 8 9 11 12 14 15 13 12 12 13 14 15 15 14 14 13 12 12 10 9 9 9 10 11 11 10 9 10 11 12
2 2 0 5 7 6 4 2 3 5 4 1 2 5 6 6 5 4 4 4 5 6 2 2 2 6 3 1 2 3 0 1 3 5 5 4 9 8 7 7 7 6 5 4 3 3 3 3 2 3 4 5 5 5 6 7 7 9 11 12 14 14 11 8 9 10 10 12 13 12 11 10 11 13 10 6 7 9 10 11 11 11 11 11 11 12
6 6 4 3 5 4 5 5 4 4 4 4 6 6 6 6 4 5 4 3 7 4 2 3 1 5 5 1 3 3 2 0 2 4 5 7 9 8 8 8 8 7 7 6 5 4 4 4 3 3 3 4 4 4 5 6 7 9 11 12 12 10 9 8 10 12 13 14 14 14 13 10 8 9 10 9 10 11 10 11 13 12 11 11 11 12
7 6 3 3 4 4 6 5 5 6 6 6 6 5 6 5 4 5 5 4 5 1 4 2 1 4 4 2 4 1 2 1 0 2 5 7 8 8 8 9 8 7 7 7 6 5 4 3 4 3 2 2 2 3 3 5 6 8 9 9 9 8 9 12 14 14 14 14 14 14 14 13 10 8 9 11 13 11 12 13 13 12 11 11 12 13
6 5 4 4 5 3 6 6 3 5 7 8 6 5 5 5 5 6 4 4 4 1 5 2 2 5 3 3 3 3 2 2 2 3 4 6 7 7 8 8 8 9 8 7 6 6 5 4 4 3 3 2 1 1 3 5 6 6 6 6 8 9 12 15 15 13 13 15 15 14 13 14 14 10 7 11 13 11 12 16 14 9 9 8 10 13
4 5 3 1 1 2 5 6 5 3 5 6 3 4 5 4 4 5 4 3 3 0 3 2 2 4 2 3 1 2 2 3 4 6 6 6 6 6 7 8 9 9 9 8 7 7 6 5 5 4 3 3 2 2 3 4 5 5 5 6 10 12 13 14 14 12 13 16 16 16 15 12 10 9 7 8 11 10 10 14 16 13 9 7 4 8
4 2 6 4 3 2 3 2 4 6 4 3 2 5 4 3 2 4 4 4 5 4 1 2 3 3 1 3 2 1 2 5 6 7 7 7 7 7 8 9 9 9 8 8 7 7 7 6 6 5 4 4 3 2 3 4 4 4 6 7 10 12 11 11 13 12 13 13 13 14 16 13 8 7 7 6 7 8 10 12 14 12 11 10 6 5
4 3 7 3 3 3 4 2 1 5 3 2 4 4 2 3 4 5 3 2 4 6 2 1 4 2 2 2 4 4 4 5 6 8 7 6 7 8 9 9 8 9 9 8 7 7 6 6 6 6 5 4 3 2 3 3 3 4 6 7 7 9 9 9 10 10 11 12 11 11 12 10 7 6 6 5 4 6 9 12 12 9 10 11 9 8
3 2 6 2 2 5 1 2 1 1 4 3 3 1 4 1 4 5 4 3 5 6 3 2 5 4 1 2 5 7 6 4 5 8 7 5 7 8 8 9 8 9 8 8 8 7 6 7 6 6 6 4 3 2 2 2 2 3 5 6 6 7 8 8 8 8 9 9 8 7 7 7 5 5 4 3 4 6 8 8 7 8 11 12 10 10
3 2 6 2 1 3 3 4 2 4 1 4 3 2 1 3 4 3 4 5 5 6 3 2 3 3 4 4 5 8 6 5 4 5 3 4 8 8 7 9 9 8 7 7 7 7 6 7 7 6 5 4 3 1 0 1 1 3 4 5 5 5 6 7 7 7 8 8 6 5 5 5 5 4 3 4 6 7 8 8 6 9 14 14 11 11
1 3 3 4 1 1 4 5 3 3 3 1 2 2 2 4 4 2 3 4 5 6 4 2 2 1 5 6 8 10 9 8 6 4 4 7 9 8 7 8 7 7 7 6 7 7 6 7 7 5 4 3 2 1 1 1 1 2 4 5 5 5 5 6 7 7 7 7 5 4 3 3 3 3 4 6 8 7 7 9 9 10 12 12 12 11
1 3 2 3 2 4 2 1 4 3 1 3 4 3 1 1 3 3 3 3 5 6 5 5 4 2 6 6 8 10 9 9 8 6 7 9 9 9 8 8 7 7 7 7 7 7 7 6 5 4 3 2 2 1 1 1 1 2 4 4 4 5 5 5 6 6 6 6 5 4 3 2 2 4 7 9 9 9 8 10 11 10 9 11 13 13
1 2 3 2 1 1 2 4 4 4 5 4 3 3 3 3 4 5 4 3 4 6 5 6 4 4 6 5 7 8 8 9 9 8 9 10 10 10 9 9 8 7 6 7 8 7 7 6 5 3 2 1 1 1 2 1 1 2 3 4 3 3 4 4 4 4 5 4 3 4 4 4 5 8 10 10 11 12 12 12 13 11 9 11 14 15
2 2 3 3 2 2 4 4 1 3 4 4 2 2 4 4 4 6 5 2 3 4 3 6 4 3 6 6 6 7 9 10 10 10 10 11 12 11 11 11 10 9 8 8 8 8 7 7 6 5 4 4 3 2 2 1 0 1 3 3 3 2 3 3 3 4 4 2 3 3 3 6 9 11 12 11 12 14 15 15 14 11 11 13 14 15
2 3 2 1 1 2 4 3 2 2 4 4 0 2 4 3 4 5 5 4 5 4 2 6 4 3 5 5 6 8 9 10 11 12 11 11 11 12 13 12 11 11 10 9 9 9 9 9 9 9 9 8 7 5 3 2 1 1 2 3 3 3 2 3 4 5 5 5 5 4 5 10 12 13 12 11 11 14 15 16 14 11 11 14 14 14
2 2 2 3 3 3 4 4 4 5 5 4 0 2 3 3 4 5 4 3 5 4 4 7 4 4 4 4 7 9 10 11 11 12 12 12 11 11 12 12 11 12 11 11 11 11 11 11 11 11 12 11 11 9 7 6 5 3 3 3 3 3 2 3 4 5 6 6 7 7 8 13 14 13 13 12 12 13 13 14 13 12 12 14 14 14
2 2 2 4 5 5 4 3 2 2 2 2 1 1 1 3 5 6 5 5 5 2 3 7 3 5 5 6 9 9 10 9 9 10 11 12 12 11 11 11 11 11 11 12 12 12 12 12 13 14 14 13 13 12 10 10 9 7 6 5 5 4 3 2 3 4 5 6 8 8 12 16 15 14 14 14 14 13 10 10 11 11 11 13 14 15
2 2 3 4 5 6 5 3 2 3 6 4 2 3 2 2 4 5 6 5 5 4 4 4 2 7 7 7 8 8 8 7 7 8 9 10 10 11 11 11 11 11 10 11 11 12 12 12 14 16 16 16 15 14 13 12 12 10 8 8 7 6 5 3 3 4 6 7 9 10 14 16 15 15 15 16 17 13 10 11 11 10 10 11 13 14
4 4 4 5 6 5 3 1 1 4 8 7 5 5 3 2 4 7 8 5 6 7 6 3 4 6 6 7 7 6 7 7 8 9 9 9 9 10 10 11 12 12 12 12 12 12 13 12 13 15 17 17 17 17 15 13 13 12 10 9 8 7 6 6 4 5 7 9 11 12 16 17 15 14 15 17 18 15 13 13 12 11 11 11 12 14
5 5 4 6 7 4 2 2 3 5 6 5 6 6 4 4 5 7 8 5 6 8 4 3 4 5 7 7 6 6 7 8 9 9 9 9 9 9 10 10 11 12 12 13 13 12 12 11 12 14 16 17 18 18 17 14 13 12 12 11 10 8 8 8 7 6 7 9 12 14 17 16 15 15 16 16 16 14 13 12 11 11 11 11 13 14
4 5 3 6 8 7 6 5 4 6 6 5 5 4 3 4 4 5 6 4 4 5 1 5 7 7 6 5 7 7 6 6 6 6 6 7 8 8 8 9 10 10 10 11 12 12 12 12 12 14 16 17 17 17 16 15 14 13 13 12 11 9 7 7 8 8 7 8 10 12 15 17 16 16 16 15 14 14 13 12 11 11 12 12 13 14
2 3 1 4 8 9 8 6 6 7 7 6 6 4 4 4 3 3 3 2 2 2 4 6 6 5 4 5 7 6 4 5 4 4 5 5 6 7 8 8 9 9 10 10 11 11 12 12 12 13 15 16 17 16 15 14 14 14 13 13 12 10 8 7 7 7 8 7 7 8 11 13 13 14 14 15 15 15 15 14 13 13 13 13 13 14
3 3 1 4 9 9 7 8 7 6 7 9 9 6 5 5 3 2 1 1 3 3 5 6 3 4 5 6 7 5 3 2 3 5 4 5 7 8 8 8 8 8 9 9 10 11 11 12 12 12 13 15 16 16 15 15 14 14 14 14 13 11 9 8 6 6 6 7 7 7 8 9 11 12 13 14 16 16 15 15 15 14 13 13 14 15
3 4 4 5 8 6 3 5 5 5 7 8 5 4 3 2 1 1 2 1 3 4 4 3 1 6 7 7 6 4 0 2 4 4 4 5 6 6 6 6 6 6 7 7 8 9 10 11 13 13 13 13 14 15 15 15 15 14 14 15 14 12 10 8 6 5 6 8 9 9 9 10 11 13 14 14 15 15 16 16 16 16 15 14 14 15
2 5 5 4 6 5 2 4 5 7 7 2 3 4 2 1 2 3 3 2 0 1 1 3 5 8 7 4 2 1 2 2 2 2 3 3 3 3 3 4 3 4 4 5 6 7 8 10 12 14 15 15 14 13 13 14 15 14 14 13 13 13 11 10 8 7 7 8 10 10 10 10 11 13 13 12 11 13 15 17 17 16 16 16 16 16
4 5 4 3 5 4 2 5 7 7 2 4 5 5 3 2 4 6 6 4 3 3 4 6 7 5 3 1 1 1 1 0 1 1 2 2 2 3 3 2 3 3 4 5 6 7 9 11 12 14 16 17 16 14 13 13 15 15 14 12 12 12 12 12 11 9 8 9 10 10 10 9 10 11 10 10 10 12 16 18 17 17 17 17 17 18
6 5 3 3 4 3 3 6 6 2 4 6 5 5 4 5 7 7 5 4 3 3 3 5 5 3 1 1 1 1 2 3 3 2 1 2 3 5 5 5 5 5 5 6 7 8 10 11 13 14 15 15 16 16 14 14 15 16 15 13 12 12 12 12 12 12 11 11 11 10 10 10 10 11 11 11 12 14 16 18 18 18 17 17 18 18
7 5 4 4 4 4 5 6 3 2 5 6 5 4 2 2 3 2 1 3 3 1 2 4 5 4 3 2 1 1 3 4 4 3 2 4 6 6 7 8 8 8 8 8 10 10 10 11 12 13 14 15 16 16 15 14 14 15 15 14 12 12 12 12 12 13 13 12 12 12 11 11 10 10 11 13 13 14 16 17 18 18 17 17 18 19
5 3 3 4 4 3 6 5 3 4 4 4 6 5 2 2 1 2 3 3 4 2 1 3 4 4 4 3 3 0 3 5 3 3 4 5 7 7 8 9 10 11 11 12 12 12 12 12 13 14 15 16 16 16 15 15 15 15 14 14 14 13 12 12 13 14 14 14 14 14 13 12 11 10 11 12 13 14 15 16 18 19 18 19 20 20
5 2 2 4 4 4 5 6 5 4 0 4 5 4 2 1 2 3 5 3 4 3 1 1 3 4 4 4 4 3 3 4 2 2 5 6 7 7 8 9 11 12 12 13 13 13 13 14 15 15 16 16 16 15 15 15 15 14 14 13 14 14 13 13 14 15 16 17 17 16 14 13 12 10 11 12 13 13 14 16 18 19 20 21 20 18
4 3 3 5 5 3 4 6 4 1 5 6 3 3 3 1 4 6 6 2 4 4 2 2 2 3 4 4 4 4 3 4 4 5 7 8 8 9 9 9 11 12 13 14 13 13 14 14 14 15 15 16 16 16 16 16 14 14 14 14 14 14 13 13 15 16 17 18 19 18 15 13 13 11 11 12 13 14 15 17 18 19 20 21 19 17
3 3 3 5 5 2 3 6 3 3 5 5 3 3 3 1 5 6 4 1 4 4 2 2 2 3 4 4 4 4 4 4 6 7 8 9 9 9 10 10 11 12 13 14 14 14 14 14 14 15 16 16 16 16 17 16 15 15 15 15 15 15 13 13 15 16 16 17 19 20 17 14 13 13 12 12 13 14 16 17 18 19 18 18 18 18
1 2 2 4 4 2 2 5 4 3 4 5 3 3 2 3 4 1 2 3 3 3 3 1 2 2 3 4 4 4 5 6 7 8 9 9 9 10 11 11 12 12 13 14 14 14 14 14 15 16 17 17 18 18 18 17 17 17 16 16 16 16 14 14 15 15 16 16 18 19 18 15 14 12 12 12 13 14 15 16 18 19 18 17 17 18
2 3 3 1 2 3 4 5 5 0 4 5 3 0 2 3 1 3 4 3 2 3 2 1 1 2 3 4 5 6 7 7 8 8 9 9 9 10 11 12 12 14 14 15 15 15 15 15 16 16 17 18 19 19 19 19 19 18 17 17 17 16 14 14 14 14 15 16 17 19 18 15 14 12 12 12 12 13 14 15 16 18 19 18 17 17
2 4 4 2 3 4 4 2 2 2 6 6 3 3 5 6 5 3 2 2 3 2 1 1 1 1 3 4 6 7 7 7 8 8 9 10 10 10 11 12 13 15 16 17 17 17 16 16 16 17 17 18 19 19 19 19 19 19 19 19 18 16 14 14 14 14 15 15 16 18 18 15 13 12 12 11 12 12 14 14 15 16 18 17 16 16
3 3 4 3 3 3 3 4 5 4 5 7 7 7 7 7 5 3 3 3 3 2 3 3 3 3 4 5 6 7 7 8 9 9 9 10 10 11 12 13 14 15 16 17 18 17 16 17 17 18 19 19 19 19 19 18 19 19 19 19 17 16 15 15 15 14 15 16 16 18 18 16 13 12 11 11 11 12 12 13 13 15 16 17 15 14
4 2 3 3 1 3 3 4 4 4 4 6 6 6 6 6 5 4 4 4 3 3 3 4 4 5 5 6 7 8 8 9 10 10 10 11 12 13 14 15 15 16 17 17 17 17 17 18 18 19 19 20 20 20 19 18 19 19 20 18 17 17 16 15 15 15 16 17 17 18 18 18 15 12 10 10 11 11 11 11 12 12 13 15 14 13
3 1 3 2 1 1 1 3 4 4 4 4 4 4 5 5 5 4 3 3 3 3 3 4 5 5 6 6 7 8 10 11 11 11 11 11 12 14 15 16 16 17 18 18 19 18 18 18 18 19 20 21 21 21 20 20 20 20 20 19 18 18 17 16 16 16 17 17 17 17 18 19 16 12 10 11 12 11 11 10 10 11 11 12 13 13
2 3 3 1 0 1 1 3 3 2 3 2 1 2 3 3 4 3 3 2 2 2 3 4 5 6 6 7 7 8 10 11 11 11 11 12 12 14 16 17 18 19 20 20 20 19 19 19 19 20 21 22 22 21 21 21 21 21 21 21 20 19 18 17 16 17 18 18 19 18 18 19 18 15 12 11 11 12 12 11 10 10 10 10 11 12
1 3 2 1 2 2 3 4 2 3 4 4 3 4 4 3 3 3 4 4 4 4 5 6 7 7 8 9 9 9 11 11 11 12 13 12 12 14 17 18 19 20 21 20 20 20 20 20 20 21 22 23 23 23 22 22 22 22 22 21 21 20 19 19 18 17 18 19 19 19 19 19 19 17 14 12 11 12 13 12 11 10 9 9 9 12
3 2 1 3 5 1 3 3 1 3 1 3 5 5 4 4 5 5 6 7 7 6 6 8 9 9 10 11 11 11 11 11 12 14 13 13 14 16 18 19 20 20 20 21 21 21 21 21 21 22 23 23 23 22 23 23 23 23 22 22 21 20 19 19 19 18 18 18 19 19 19 19 18 18 16 14 12 12 12 13 13 12 10 9 9 10
3 3 3 3 2 4 7 5 3 3 2 3 5 5 5 5 6 7 6 7 7 7 7 8 9 10 11 12 14 14 13 13 14 15 14 15 17 19 19 19 19 20 21 22 22 22 22 22 22 22 23 22 22 22 22 23 23 23 23 22 21 20 20 20 19 18 18 17 18 19 19 19 18 18 17 16 15 14 14 14 14 14 13 12 11 10
Wind_Direction
266 266 248 261 293 344 359 332 314 326 314 303 295 282 295 296 329 50 44 33 344 279 245 243 279 288 287 287 264 177 177 206 225 228 220 212 208 199 205 212 213 221 220 209 212 214 213 212 211 212 213 213 214 213 211 211 211 213 215 215 213 211 207 201 198 199 201 203 204 207 211 213 214 216 217 219 225 229 228 231 239 240 232 220 215 213
242 257 255 297 0 10 353 329 308 295 279 278 281 283 283 283 343 59 49 28 334 268 294 100 284 285 280 288 296 177 198 227 235 230 222 218 214 204 206 214 215 219 213 199 204 207 209 210 210 211 213 215 217 216 212 212 211 211 213 214 213 210 206 203 201 201 203 205 206 206 209 214 215 210 212 219 221 222 228 239 245 242 228 209 205 210
236 254 256 67 51 14 311 300 275 267 266 263 264 273 278 311 355 93 99 97 177 265 327 0 304 290 281 293 311 196 226 243 237 240 235 224 217 207 207 213 214 214 208 203 206 206 208 209 210 213 216 217 219 220 217 214 211 210 212 213 212 210 208 207 204 202 205 207 205 207 209 214 218 207 206 226 230 220 221 229 232 230 225 213 205 209
240 250 320 80 54 299 269 247 252 253 249 248 258 270 280 342 328 259 106 130 201 265 311 324 305 291 278 257 167 146 184 187 187 213 230 232 226 215 212 214 216 214 211 213 214 210 208 209 209 212 216 217 218 220 219 215 211 209 210 210 209 209 209 209 205 204 206 205 199 202 206 208 220 208 189 219 240 224 211 212 215 218 216 213 214 212
256 27 52 51 315 290 274 241 237 246 238 230 242 270 291 329 324 324 6 302 222 205 262 294 285 282 314 270 161 132 155 167 170 194 210 216 217 219 221 219 219 223 222 223 224 216 210 210 211 212 214 216 217 218 218 216 211 209 209 207 205 206 207 208 207 204 203 200 195 196 199 201 210 210 193 208 226 223 220 216 207 208 208 208 212 207
257 67 56 277 255 264 269 251 230 245 252 236 219 242 289 321 321 313 320 301 257 195 132 310 295 356 38 308 202 120 150 151 159 185 190 185 188 200 213 212 210 220 227 230 234 231 220 216 214 212 212 215 218 219 219 218 214 211 208 205 203 203 206 208 207 203 200 199 197 194 197 198 198 205 206 209 218 219 223 225 209 202 201 202 204 200
241 102 149 259 265 256 257 251 223 232 256 259 153 163 279 309 302 302 307 296 289 323 74 274 295 328 349 328 84 61 63 90 95 175 156 158 175 188 198 195 197 209 221 231 239 241 231 223 218 214 214 216 219 220 217 217 217 214 209 204 202 203 205 208 207 205 202 201 201 200 203 205 201 206 208 207 216 218 217 222 213 200 197 203 204 200
179 158 181 230 256 250 246 239 183 208 254 276 71 71 295 292 294 305 301 282 298 327 247 214 265 299 304 60 94 55 58 73 53 354 49 122 146 147 151 159 183 205 218 228 231 233 229 225 225 221 220 222 223 219 212 212 213 212 210 205 203 204 206 209 209 207 207 208 206 204 209 216 213 211 207 200 207 215 213 212 209 201 199 207 209 202
164 198 206 230 246 243 257 319 74 225 256 351 58 0 314 300 295 303 289 277 306 303 261 196 214 273 295 90 107 62 55 90 105 73 10 49 98 102 105 121 136 156 181 205 197 199 208 215 227 228 228 229 226 220 212 209 208 207 209 207 205 207 209 211 210 210 213 216 215 211 214 222 223 220 212 202 203 208 212 216 209 201 199 199 204 209
138 213 270 268 262 265 308 355 349 246 258 34 48 295 259 252 266 276 277 282 289 276 276 156 221 274 308 59 91 53 50 149 119 105 132 91 85 88 98 109 112 117 126 148 153 144 144 166 208 218 222 224 221 218 215 211 209 207 207 208 209 210 211 214 215 219 224 226 226 225 222 221 227 233 225 207 201 201 207 218 212 199 201 202 200 209
208 133 305 256 257 290 320 306 261 255 268 17 264 248 234 228 241 259 267 289 275 258 280 33 280 276 298 24 60 59 105 197 102 118 146 103 80 82 87 89 92 100 105 111 116 113 112 118 146 188 206 215 215 213 210 209 211 212 211 212 214 213 211 210 216 229 245 251 251 251 246 235 234 242 246 229 218 218 212 218 220 205 197 199 199 205
211 195 193 211 231 265 273 244 216 222 229 230 245 255 248 223 214 241 226 230 261 259 71 54 305 266 267 5 70 113 147 151 86 118 113 84 78 80 79 75 74 83 97 103 104 107 116 121 134 166 189 204 212 210 209 210 211 215 216 216 217 215 210 213 222 233 245 254 262 270 267 262 257 257 269 273 255 244 235 228 225 212 195 190 193 202
193 195 170 150 187 228 262 245 184 184 202 222 235 241 251 236 210 236 228 223 257 255 82 48 333 264 265 24 31 41 105 96 101 81 73 79 83 81 81 82 76 75 85 93 96 102 107 111 122 139 154 173 194 202 208 213 217 220 220 221 221 210 206 214 226 238 244 246 254 262 258 256 267 270 260 262 260 260 264 259 241 216 202 195 190 196
165 160 172 180 167 185 263 262 210 181 192 209 230 228 239 253 244 246 243 245 262 108 91 61 278 258 258 71 27 338 34 83 119 93 77 85 85 79 81 83 80 75 77 81 85 91 95 97 102 107 114 120 129 159 195 211 220 226 225 227 222 208 206 214 222 231 240 243 243 243 245 252 268 275 257 251 257 262 277 286 285 259 224 209 193 195
193 165 155 328 99 167 259 280 315 311 206 200 243 261 258 271 270 273 278 273 279 151 114 129 235 276 323 103 111 349 39 100 116 112 109 106 97 89 84 77 74 74 75 79 81 81 86 91 92 94 97 95 102 141 185 209 216 219 220 220 218 212 209 213 216 217 231 245 243 235 238 250 262 264 253 251 261 273 287 297 302 298 280 272 229 198
252 124 77 42 19 355 312 322 318 293 234 165 220 253 268 306 284 285 305 316 317 298 200 183 243 294 30 136 124 54 118 118 117 115 111 110 109 100 84 72 69 71 71 75 78 77 81 87 92 92 94 95 105 149 191 209 207 206 215 218 217 215 209 208 212 215 225 238 239 233 236 241 240 242 253 266 278 290 299 295 290 288 286 288 279 231
245 113 96 104 100 56 3 21 309 281 272 153 214 236 53 26 298 279 274 264 276 273 247 208 259 251 152 118 38 30 61 86 102 99 85 83 88 82 75 68 66 71 72 73 73 73 76 80 85 88 91 98 110 154 199 211 202 204 220 224 219 215 212 210 211 218 227 229 228 232 237 239 235 240 261 279 283 288 292 284 274 270 278 284 274 256
283 144 123 156 129 97 37 334 94 291 292 265 250 46 78 70 268 266 263 240 240 258 246 210 265 279 126 73 26 31 42 37 56 69 61 56 65 63 68 71 68 71 76 78 76 73 73 75 78 85 89 95 107 154 204 202 193 209 228 231 223 221 226 225 216 219 233 237 241 248 257 265 266 261 255 245 252 270 271 262 257 264 270 268 256 249
304 236 132 155 286 120 172 241 180 132 243 302 335 13 268 267 252 223 255 266 258 266 268 206 251 312 30 38 16 20 24 358 16 61 55 40 55 54 61 69 70 72 73 74 72 68 68 70 72 80 89 101 113 144 168 103 165 209 231 233 228 231 236 230 221 225 234 241 255 275 286 289 289 285 265 232 238 255 256 243 239 256 263 260 251 245
308 270 152 138 272 219 197 240 253 152 154 210 240 221 244 302 301 277 276 285 283 277 282 284 252 58 42 15 357 0 2 352 1 52 49 36 49 52 54 60 63 67 66 67 69 66 65 66 70 76 87 104 115 110 90 88 132 211 237 231 218 219 228 224 217 221 227 228 238 266 293 299 294 284 264 244 243 243 238 236 236 246 257 256 247 240
189 269 256 144 172 238 232 8 342 339 292 245 246 249 260 284 279 284 276 272 286 281 277 282 276 67 49 11 359 2 1 2 11 43 53 45 49 52 52 52 54 60 63 66 68 68 66 64 68 78 88 109 133 127 97 93 129 203 246 247 223 212 219 229 225 226 229 222 218 225 242 254 240 242 245 245 251 251 235 226 226 231 241 245 242 236
221 269 274 251 216 232 76 63 26 9 355 322 318 321 305 286 272 270 254 217 260 280 290 284 277 66 44 10 13 12 12 24 37 53 61 56 53 54 55 52 49 50 52 60 65 65 62 54 50 50 36 51 94 102 95 93 136 199 239 257 251 220 218 235 239 239 242 228 216 215 211 210 211 221 233 239 249 256 245 227 222 222 226 235 241 238
309 283 268 285 339 48 93 98 11 354 348 327 348 349 310 306 303 287 285 290 263 263 287 278 268 65 40 22 37 38 37 41 47 57 63 61 58 56 56 54 52 49 43 47 55 56 50 38 31 23 3 0 12 26 61 98 202 234 247 258 262 237 220 226 213 210 213 190 180 193 202 214 217 219 226 234 244 252 247 233 222 217 220 228 235 236
255 253 253 268 90 118 141 157 221 254 266 264 216 29 334 331 345 320 317 320 281 268 279 267 260 73 50 34 49 57 58 57 57 59 59 61 60 55 53 52 51 51 46 44 49 47 40 30 23 16 7 3 3 0 355 323 277 255 261 266 265 251 216 195 190 188 186 171 153 153 201 227 232 231 231 235 243 245 245 239 229 219 220 225 228 231
235 226 224 237 224 192 188 201 204 201 235 264 348 45 350 332 332 309 292 278 273 301 319 285 278 77 66 52 62 66 66 65 65 66 62 60 58 53 53 51 46 46 43 42 44 44 39 33 25 18 11 6 3 359 349 329 315 306 290 284 283 283 249 188 187 185 186 177 150 156 213 236 245 248 241 235 236 238 239 238 232 226 224 225 225 226
270 251 239 253 261 261 258 272 274 235 264 282 237 202 309 327 320 308 292 274 277 311 302 284 277 117 114 86 72 65 64 64 65 68 66 62 59 55 54 52 49 46 40 39 40 40 39 34 29 25 18 14 10 4 356 341 336 338 333 324 312 304 298 233 200 188 191 179 156 177 220 235 243 251 248 241 240 243 239 230 226 226 226 225 226 225
260 237 243 264 274 278 285 303 351 294 279 279 260 238 240 297 304 299 284 281 309 314 283 297 98 138 132 92 78 65 61 64 65 68 68 64 64 62 60 56 53 48 42 40 41 40 38 33 29 26 22 21 18 12 7 357 352 356 354 346 335 319 306 280 236 200 197 176 159 189 225 232 235 245 249 246 246 244 234 225 221 219 220 223 226 226
255 228 211 235 256 270 293 296 169 243 267 279 281 268 259 263 275 281 282 307 339 307 288 6 87 144 120 83 79 74 73 75 72 72 72 68 64 61 60 57 51 45 38 34 35 37 37 33 28 25 22 21 20 18 13 6 3 3 357 352 345 334 319 299 269 223 206 178 164 196 228 234 236 242 246 246 245 238 228 226 224 217 213 214 220 224
273 253 204 225 248 241 214 218 210 236 259 269 273 275 278 275 271 278 291 324 324 293 295 49 93 119 102 93 97 96 97 90 80 77 73 65 59 51 46 41 39 37 33 28 26 26 29 31 28 25 23 20 18 17 13 7 6 3 358 355 348 337 327 311 293 260 224 191 174 196 222 228 229 235 240 243 242 235 227 228 226 222 217 213 215 219
292 273 226 240 258 242 215 211 220 238 246 244 249 255 267 279 287 289 299 321 300 282 33 93 106 98 89 106 116 113 107 96 87 81 69 57 48 37 30 28 29 29 29 26 22 18 18 22 23 21 21 20 16 14 11 5 360 357 356 356 352 345 336 319 304 290 262 223 191 191 206 212 214 220 226 230 235 237 233 229 226 223 221 217 216 217
268 274 246 250 262 251 225 211 224 239 244 247 245 227 231 250 252 259 272 270 241 215 137 131 122 107 111 126 129 131 120 104 82 50 44 35 24 17 15 25 33 30 25 22 17 13 11 12 15 15 16 16 14 9 7 3 357 354 353 354 356 353 344 329 312 299 287 266 228 201 204 211 213 216 219 223 230 235 234 230 226 223 219 218 217 217
247 266 245 236 260 262 229 212 223 230 241 252 244 218 217 241 248 253 246 242 264 236 183 183 167 141 159 158 149 151 135 99 28 10 5 1 9 9 11 25 39 34 24 17 11 7 3 0 3 7 9 10 10 7 2 358 355 354 352 351 353 351 342 335 318 294 285 274 254 229 220 225 228 226 224 225 229 233 232 229 227 225 222 220 219 219
258 271 258 241 259 267 215 201 217 224 242 255 238 186 182 201 193 148 112 153 272 261 228 235 128 129 155 172 169 163 207 340 356 352 335 351 8 13 18 25 31 29 19 7 2 360 353 347 347 353 0 4 4 1 358 356 353 352 352 350 348 344 338 331 317 293 278 267 255 241 229 230 237 238 234 232 232 235 235 231 227 227 225 223 221 220
249 259 261 256 259 256 168 160 212 234 245 264 83 101 115 193 197 165 121 105 130 277 339 40 92 131 155 179 197 233 318 338 1 319 308 333 348 359 30 36 18 9 359 349 347 347 345 341 339 343 351 358 357 351 351 355 353 349 349 351 348 344 336 326 312 295 280 270 263 252 237 229 236 245 246 243 240 242 244 239 233 231 231 228 224 222
246 241 242 240 253 258 145 171 226 245 228 95 91 101 105 102 119 117 107 98 92 79 74 86 106 136 168 216 272 267 252 202 214 291 326 332 315 329 7 39 18 355 344 341 338 337 339 338 337 342 346 349 348 342 340 349 352 348 345 347 349 345 337 328 317 303 289 278 270 261 251 238 235 240 248 250 245 244 246 244 237 233 232 230 227 224
248 243 234 227 239 244 200 210 233 237 116 115 108 110 121 131 137 136 124 112 100 77 78 97 103 113 172 225 254 214 202 215 222 216 321 346 345 344 347 359 3 352 342 333 329 333 334 330 331 335 335 335 335 332 331 338 346 346 341 340 343 342 337 331 323 313 301 288 278 271 263 252 238 230 231 236 237 237 240 241 239 234 231 232 232 229
236 242 235 223 219 235 244 231 197 147 171 166 142 133 148 148 161 199 190 122 124 103 68 97 104 112 132 133 114 170 211 228 220 166 103 7 358 351 343 346 347 340 334 329 327 327 323 318 319 321 321 319 318 320 323 329 337 340 337 336 337 336 334 332 326 320 312 301 293 288 280 271 259 246 238 232 230 233 238 240 241 240 235 233 234 233
213 235 253 233 206 226 257 247 215 225 221 159 121 107 64 16 353 294 265 166 138 114 67 93 98 96 93 80 61 120 222 236 228 120 68 13 353 344 338 338 334 331 330 329 325 321 318 320 320 316 312 308 306 310 315 318 325 330 330 332 333 329 328 329 328 324 319 312 305 299 294 290 285 278 268 255 243 240 241 240 238 239 238 236 236 235
181 202 244 244 225 221 250 256 250 254 151 93 102 93 54 325 244 241 245 205 137 118 91 76 77 66 53 32 3 327 275 270 275 61 35 360 342 336 332 327 325 326 326 322 320 321 323 322 317 311 307 305 307 312 314 313 316 320 321 325 327 324 322 324 325 323 319 315 311 307 305 306 304 294 280 273 266 258 252 247 241 240 241 242 241 238
177 204 223 244 244 223 235 258 273 42 76 76 78 52 29 39 206 230 248 218 133 130 114 61 49 33 22 3 339 327 327 329 333 352 350 338 330 330 326 321 322 324 322 321 324 328 324 316 310 309 310 311 313 314 313 313 312 313 316 319 319 317 318 320 320 317 314 313 311 309 310 311 311 306 293 284 281 273 264 257 251 245 242 243 244 242
188 216 236 252 255 224 225 257 272 90 77 47 35 30 14 208 214 246 269 116 127 137 116 58 28 22 4 341 331 341 356 346 329 323 325 325 324 323 319 317 320 321 320 322 327 326 319 314 314 313 310 312 313 311 310 311 309 309 311 313 312 311 313 316 315 310 309 310 309 308 309 308 309 310 306 298 291 285 278 270 261 253 245 241 242 242
247 244 235 250 271 277 252 267 269 111 70 359 358 51 0 266 242 265 79 117 131 120 104 49 21 25 345 323 325 328 328 325 318 315 317 319 319 316 315 319 322 321 321 321 319 317 315 314 314 311 307 310 310 308 307 306 303 303 304 303 305 309 310 312 311 306 305 306 304 304 306 307 308 309 306 299 292 286 282 275 267 261 255 250 245 242
354 297 259 255 315 287 253 266 276 153 58 353 316 130 10 330 61 101 109 120 91 83 93 61 36 15 326 318 321 317 314 313 311 311 314 316 315 313 316 321 322 320 320 318 315 317 316 313 311 308 306 306 305 303 303 301 299 299 298 295 299 304 306 307 306 303 302 302 301 301 302 304 306 306 305 302 295 287 283 278 268 258 254 254 251 247
15 317 301 25 19 297 275 296 339 46 50 25 15 78 64 52 63 77 91 97 82 65 28 357 50 11 322 319 317 312 309 310 312 315 315 313 313 313 315 318 317 316 316 315 315 317 314 309 307 305 301 299 298 297 297 297 296 295 293 293 297 300 301 301 300 299 298 298 298 297 298 301 301 300 302 305 298 290 286 283 272 257 251 252 254 256
38 6 331 0 28 353 354 49 77 79 61 55 64 82 84 79 66 32 29 61 65 37 2 345 352 350 333 322 314 310 312 319 320 318 314 313 313 313 313 314 313 311 311 310 311 312 310 305 303 299 295 294 294 294 293 292 292 291 291 293 296 297 297 297 296 294 294 295 295 295 296 297 294 291 295 300 298 292 288 287 280 264 253 252 252 251
59 20 305 315 65 88 65 78 101 103 81 72 71 73 76 77 64 35 30 43 34 12 356 339 339 340 331 321 317 316 322 324 320 317 319 317 313 313 313 312 310 309 308 308 308 308 305 301 298 296 294 295 296 297 297 294 292 290 291 293 294 293 293 293 291 290 289 290 291 292 293 293 291 285 282 285 289 289 287 289 288 278 263 256 253 248
89 328 295 297 153 174 156 117 121 115 94 79 68 69 68 67 64 44 26 37 28 355 345 338 328 321 316 318 322 322 322 320 318 319 320 316 313 314 314 312 310 310 309 308 308 308 305 303 301 300 299 300 301 301 300 298 295 292 292 293 293 292 290 288 286 285 285 285 287 289 289 289 289 284 274 271 275 280 282 283 286 286 276 262 257 255
72 306 292 285 265 287 103 113 122 135 128 109 50 54 55 49 59 52 20 15 3 338 338 332 322 318 318 321 323 319 314 314 316 318 316 314 314 314 312 311 311 310 308 307 308 307 305 303 302 302 301 302 302 301 300 298 295 295 295 296 296 295 292 288 283 281 281 282 282 283 283 283 283 281 272 263 262 268 275 279 281 284 284 275 265 260
309 278 298 303 262 224 135 129 163 208 180 144 81 55 43 21 13 1 343 335 333 335 334 325 321 321 319 319 318 311 306 308 312 312 310 309 310 309 309 309 307 305 305 306 306 305 304 302 302 302 301 301 301 301 300 298 297 297 297 297 298 297 294 291 287 283 279 278 277 276 276 277 278 278 274 266 260 260 264 269 273 277 280 277 269 264
281 268 335 277 260 259 73 77 10 278 227 93 57 36 20 354 335 332 335 330 327 329 325 318 317 318 317 316 315 309 307 308 308 306 304 303 305 308 308 306 304 303 305 306 306 305 304 304 304 303 301 299 299 299 298 298 298 299 299 300 300 298 295 292 289 285 280 277 274 271 271 273 275 276 274 271 268 265 262 263 266 270 273 273 270 267
345 4 3 308 307 40 44 40 16 334 343 31 20 3 359 348 332 329 334 329 324 326 324 318 318 319 317 315 314 312 311 311 309 307 305 305 307 308 307 307 307 307 307 308 308 307 308 308 306 304 302 301 299 297 296 296 296 297 298 299 298 297 295 291 288 285 281 276 273 271 272 273 274 275 274 270 268 268 268 269 268 265 267 272 274 273